Starlink 3567

operational
NORAD ID: 51871 Int'l Des: 2022-022 Owner: SPXS Country: US Constellation: starlink
LEOCIRCULAR

About Starlink 3567

Description loading...

Live Position

Loading 3D Globe...

Upcoming Passes

Altitude History

Altitude vs Time

uPlot chart will show altitude changes over time

Two-Line Element Set

1 51871U 22022V 25304.11506616 .00002797 00000-0 19374-3 0 9992
2 51871 53.2149 230.8047 0001391 99.4970 260.6180 15.08846816203661
Epoch: Oct 31, 2025 • Age: 16 hours

Current Status

Altitude 541.3 km
Velocity 7.60 km/s
Sub-Earth Point 32.50°N, 66.91°W
Launch Date Mar 3, 2022
Age 3.6 years
Type internet

Technical Details

Classification Payload
Mass 297.00 kg
Dry Mass 275.00 kg
Total Mass 297.00 kg
Length 0.20 m
Diameter 2.80 m
Span 9.00 m
Shape Box + pan
Manufacturer SPXS
Bus Type Starlink
Phase Status In Orbit
Owner/State SPXS/US

Large Constellations

Loading constellations...